Weather reports worldwide

Advertisment
Andrewsfield, United Kingdom (3684): temperature & dewpoint: 16.06.2018 14:00:00 - 22.06.2018 14:00:00 (BST)Andrewsfield, United Kingdom (3684): temperature -20cm & temperature -100cm: 16.06.2018 14:00:00 - 22.06.2018 14:00:00 (BST)Andrewsfield, United Kingdom (3684): wind speed & gusts: 16.06.2018 14:00:00 - 22.06.2018 14:00:00 (BST)Andrewsfield, United Kingdom (3684): wind direction: 16.06.2018 14:00:00 - 22.06.2018 14:00:00 (BST)Andrewsfield, United Kingdom (3684): reduced air pressure: 16.06.2018 14:00:00 - 22.06.2018 14:00:00 (BST)Andrewsfield, United Kingdom (3684): visibility: 16.06.2018 14:00:00 - 22.06.2018 14:00:00 (BST)Andrewsfield, United Kingdom (3684): precipitation: 16.06.2018 14:00:00 - 22.06.2018 14:00:00 (BST)
Date & Time tt [°C] td [°C] tt -20cm [°C] tt -100cm [°C] ff [km/h] ff [kn] fx [km/h] fx [kn] dd ppp [hPa] vv [km] rr [mm]
22.06.2018 14:00:00 - - - - - - - - - - - -
22.06.2018 13:00:00 - - - - - - - - - - - -
22.06.2018 12:00:00 17,3 6,2 - - 15 8 - - NNW 1030,2 55 0,0
22.06.2018 11:00:00 16,4 6,8 - - 15 8 - - NW 1030,2 45 0,0
22.06.2018 10:00:00 15,4 7,9 17,9 15,7 13 7 - - NNW 1030,4 45 0,0
22.06.2018 09:00:00 14,0 8,2 - - 13 7 - - N 1030,4 40 0,0
22.06.2018 08:00:00 12,4 8,2 - - 13 7 - - N 1030,2 35 0,0
22.06.2018 07:00:00 10,8 7,4 - - 13 7 - - NNW 1029,7 30 0,0
22.06.2018 06:00:00 9,2 6,7 - - 11 6 - - NW 1029,3 30 0,0
22.06.2018 05:00:00 8,1 6,0 - - 9 5 - - NW 1029,3 30 0,0
22.06.2018 04:00:00 8,2 5,9 - - 11 6 - - NW 1029,2 35 0,0
22.06.2018 03:00:00 8,5 5,9 - - 9 5 - - NW 1029,1 35 0,0
22.06.2018 02:00:00 8,9 5,8 - - 9 5 - - WNW 1029,0 35 0,0
22.06.2018 01:00:00 10,3 6,1 - - 11 6 - - NW 1028,8 35 0,0
22.06.2018 00:00:00 10,4 5,9 - - 11 6 - - NW 1029,1 45 0,0
21.06.2018 23:00:00 10,6 5,7 - - 5 3 - - WNW 1028,9 45 0,0
21.06.2018 22:00:00 11,4 5,5 - - 4 2 - - N 1028,4 50 0,0
21.06.2018 21:00:00 15,0 4,7 - - 2 1 - - NNE 1027,9 50 0,0
21.06.2018 20:00:00 16,9 5,3 - - 5 3 - - NNW 1027,5 50 0,0
21.06.2018 19:00:00 16,8 3,6 - - 11 6 - - NNW 1027,3 60 0,0
21.06.2018 18:00:00 17,8 4,3 - - 11 6 - - NNW 1027,0 75 0,0
21.06.2018 17:00:00 17,4 4,3 - - 15 8 - - NW 1026,7 50 0,0
21.06.2018 16:00:00 16,9 3,9 - - 16 9 - - N 1026,4 70 0,0
21.06.2018 15:00:00 16,9 4,0 - - 16 9 - - NNW 1026,0 65 0,0
21.06.2018 14:00:00 16,5 5,5 - - 18 10 - - NNW 1025,8 65 0,0
21.06.2018 13:00:00 15,4 4,9 - - 18 10 - - N 1025,3 70 0,0
21.06.2018 12:00:00 14,8 5,6 - - 16 9 - - NNW 1025,0 50 0,0
21.06.2018 11:00:00 13,6 5,0 - - 18 10 - - NW 1024,6 45 0,0
21.06.2018 10:00:00 13,2 6,2 18,2 15,7 21 11 - - NW 1023,9 50 0,0
21.06.2018 09:00:00 11,8 5,3 - - 24 13 - - NW 1023,3 45 0,0
21.06.2018 08:00:00 11,8 7,0 - - 21 11 - - NW 1022,7 40 0,0
21.06.2018 07:00:00 10,8 7,1 - - 18 10 - - NW 1022,4 40 0,0
21.06.2018 06:00:00 9,6 6,6 - - 15 8 - - WNW 1022,1 30 0,0
21.06.2018 05:00:00 9,3 6,4 - - 15 8 - - NW 1021,5 35 0,0
21.06.2018 04:00:00 9,6 6,2 - - 15 8 - - WNW 1021,2 35 0,0
21.06.2018 03:00:00 10,7 5,7 - - 15 8 - - NW 1020,9 35 0,0
21.06.2018 02:00:00 12,3 5,5 - - 18 10 - - NW 1020,4 40 0,0
21.06.2018 01:00:00 13,3 8,1 - - 15 8 - - NW 1019,9 35 0,0
21.06.2018 00:00:00 14,0 9,2 - - 16 9 - - NW 1019,7 35 0,0
20.06.2018 23:00:00 16,1 11,9 - - 15 8 - - NW 1019,2 40 0,0
20.06.2018 22:00:00 17,6 13,3 - - 15 8 - - NW 1018,5 40 0,0
20.06.2018 21:00:00 19,0 13,6 - - 15 8 - - W 1017,7 55 0,0
20.06.2018 20:00:00 21,1 13,8 - - 26 14 - - W 1017,4 75 0,0
20.06.2018 19:00:00 22,4 14,7 - - 22 12 - - WNW 1017,5 60 0,0
20.06.2018 18:00:00 23,0 15,7 - - 24 13 - - W 1017,4 70 0,0
20.06.2018 17:00:00 23,4 16,1 - - 24 13 - - W 1017,8 60 0,0
20.06.2018 16:00:00 23,3 16,1 - - 22 12 - - WSW 1018,1 55 0,0
20.06.2018 15:00:00 23,3 15,9 - - 28 15 - - SW 1018,1 55 0,0
20.06.2018 14:00:00 22,4 16,2 - - 24 13 - - WSW 1018,6 55 0,0
20.06.2018 13:00:00 21,5 15,1 - - 29 16 - - WSW 1019,0 60 0,0
20.06.2018 12:00:00 20,6 14,9 - - 24 13 - - WSW 1019,4 40 0,0
20.06.2018 11:00:00 18,6 14,8 - - 26 14 - - WSW 1019,7 35 0,0
20.06.2018 10:00:00 17,6 14,5 18,2 15,7 28 15 - - SW 1019,9 40 0,0
20.06.2018 09:00:00 16,3 14,9 - - 22 12 - - WSW 1020,3 28 0,0
20.06.2018 08:00:00 15,1 14,5 - - 24 13 - - WSW 1020,6 9 0,0
20.06.2018 07:00:00 15,5 15,2 - - 21 11 - - SSW 1020,1 7 0,0
20.06.2018 06:00:00 15,5 15,4 - - 21 11 - - SW 1020,1 5 0,0
20.06.2018 05:00:00 14,4 14,2 - - 13 7 - - SSW 1020,4 10 0,0
20.06.2018 04:00:00 14,5 14,1 - - 9 5 - - SSW 1020,5 17 0,0
20.06.2018 03:00:00 14,9 14,1 - - 9 5 - - SW 1021,0 27 0,0
20.06.2018 02:00:00 16,0 14,6 - - 9 5 - - SW 1021,2 30 0,0
20.06.2018 01:00:00 17,0 15,2 - - 11 6 - - SW 1021,6 35 0,0
20.06.2018 00:00:00 17,7 15,8 - - 11 6 - - SW 1021,7 35 0,0
19.06.2018 23:00:00 18,9 15,9 - - 13 7 - - SW 1021,8 40 0,0
19.06.2018 22:00:00 19,8 16,2 - - 13 7 - - WSW 1021,7 45 0,0
19.06.2018 21:00:00 21,2 15,7 - - 15 8 - - W 1021,3 60 0,0
19.06.2018 20:00:00 22,0 15,6 - - 15 8 - - W 1021,2 55 0,0
19.06.2018 19:00:00 22,5 15,6 - - 18 10 - - W 1021,2 55 0,0
19.06.2018 18:00:00 23,3 16,0 - - 22 12 - - WSW 1021,1 60 0,0
19.06.2018 17:00:00 23,4 16,0 - - 22 12 - - WSW 1021,4 60 0,0
19.06.2018 16:00:00 23,9 16,5 - - 21 11 - - WSW 1021,6 60 0,0
19.06.2018 15:00:00 23,1 15,4 - - 18 10 - - WSW 1021,9 65 0,0
19.06.2018 14:00:00 21,9 14,4 - - 15 8 - - SW 1022,2 70 0,0
19.06.2018 13:00:00 21,1 15,1 - - 15 8 - - W 1022,6 45 0,0
19.06.2018 12:00:00 20,0 14,4 - - 16 9 - - WSW 1022,8 50 0,0
19.06.2018 11:00:00 19,6 14,1 - - 21 11 - - WSW 1022,7 60 0,0
19.06.2018 10:00:00 19,8 14,6 17,9 15,7 13 7 - - W 1022,6 65 0,0
19.06.2018 09:00:00 18,9 14,5 - - 15 8 - - W 1022,7 65 0,0
19.06.2018 08:00:00 17,4 14,2 - - 13 7 - - W 1022,5 50 0,0
19.06.2018 07:00:00 16,7 13,7 - - 15 8 - - W 1022,1 55 0,0
19.06.2018 06:00:00 16,7 13,8 - - 15 8 - - W 1021,5 50 0,0
19.06.2018 05:00:00 16,4 13,7 - - 15 8 - - W 1021,0 55 0,0
19.06.2018 04:00:00 16,7 13,7 - - 24 13 - - W 1020,6 50 0,0
19.06.2018 03:00:00 17,0 14,1 - - 22 12 - - W 1020,2 55 0,0
19.06.2018 02:00:00 17,4 14,3 - - 26 14 - - W 1019,8 50 0,0
19.06.2018 01:00:00 18,0 15,3 - - 26 14 46 25 W 1019,4 40 0,0
19.06.2018 00:00:00 18,1 15,0 - - 28 15 - - WSW 1019,4 35 0,0
18.06.2018 23:00:00 18,9 14,7 - - 21 11 - - WSW 1019,5 35 0,0
18.06.2018 22:00:00 19,3 14,7 - - 21 11 - - WSW 1019,3 40 0,0
18.06.2018 21:00:00 20,0 14,4 - - 24 13 - - WSW 1018,5 40 0,0
18.06.2018 20:00:00 20,8 14,3 - - 28 15 - - W 1018,1 50 0,0
18.06.2018 19:00:00 21,2 14,2 - - 31 17 48 26 W 1017,7 45 0,0
18.06.2018 18:00:00 23,3 14,2 - - 28 15 - - W 1017,3 50 0,0
18.06.2018 17:00:00 24,0 13,6 - - 26 14 - - W 1017,1 60 0,0
18.06.2018 16:00:00 23,2 12,2 - - 21 11 - - W 1017,6 45 0,0
18.06.2018 15:00:00 23,0 12,5 - - 26 14 - - WSW 1017,7 45 0,0
18.06.2018 14:00:00 22,2 12,0 - - 26 14 - - WSW 1017,8 45 0,0
18.06.2018 13:00:00 21,6 12,7 - - 21 11 - - W 1018,0 45 0,0
18.06.2018 12:00:00 20,0 12,6 - - 22 12 - - WSW 1018,2 50 0,0
18.06.2018 11:00:00 17,7 13,2 - - 21 11 - - WSW 1018,1 50 0,0
18.06.2018 10:00:00 16,2 13,3 17,2 15,5 16 9 - - W 1018,1 40 0,0
18.06.2018 09:00:00 15,1 12,2 - - 21 11 - - W 1018,1 40 0,0
18.06.2018 08:00:00 15,1 12,3 - - 21 11 - - W 1017,5 40 0,0
18.06.2018 07:00:00 15,1 12,6 - - 18 10 - - W 1016,7 50 0,0
18.06.2018 06:00:00 14,9 13,6 - - 21 11 - - W 1016,4 40 0,0
18.06.2018 05:00:00 15,0 14,6 - - 16 9 - - WSW 1016,2 14 0,0
18.06.2018 04:00:00 15,1 14,6 - - 16 9 - - WSW 1016,0 11 0,0
18.06.2018 03:00:00 15,2 14,3 - - 15 8 - - WSW 1016,0 13 0,0
18.06.2018 02:00:00 15,0 14,1 - - 16 9 - - SW 1016,2 17 0,0
18.06.2018 01:00:00 14,9 13,6 - - 16 9 - - SSW 1016,1 24 0,0
18.06.2018 00:00:00 14,8 13,2 - - 15 8 - - SSW 1016,4 28 0,0
17.06.2018 23:00:00 14,7 13,0 - - 16 9 - - SSW 1016,5 30 0,0
17.06.2018 22:00:00 14,9 12,8 - - 16 9 - - SW 1016,5 40 0,0
17.06.2018 21:00:00 15,5 12,2 - - 18 10 - - SW 1016,0 35 0,0
17.06.2018 20:00:00 16,1 11,6 - - 22 12 - - WSW 1016,2 35 0,0
17.06.2018 19:00:00 16,8 11,1 - - 24 13 - - SW 1015,8 35 0,0
17.06.2018 18:00:00 16,7 11,4 - - 24 13 - - SW 1015,6 35 0,0
17.06.2018 17:00:00 17,3 11,5 - - 22 12 - - SW 1015,8 35 0,0
17.06.2018 16:00:00 17,5 10,2 - - 21 11 - - WSW 1015,8 40 0,0
17.06.2018 15:00:00 17,8 10,4 - - 18 10 - - WSW 1015,9 45 0,0
17.06.2018 14:00:00 17,3 9,8 - - 22 12 - - WSW 1015,8 45 0,0
17.06.2018 13:00:00 17,8 9,0 - - 21 11 - - WSW 1015,7 45 0,0
17.06.2018 12:00:00 17,2 10,3 - - 22 12 - - WSW 1015,6 40 0,0
17.06.2018 11:00:00 16,0 10,9 - - 21 11 - - WSW 1015,7 40 0,0
17.06.2018 10:00:00 14,4 12,3 17,5 15,5 18 10 - - W 1016,0 23 0,0
17.06.2018 09:00:00 13,6 11,8 - - 18 10 - - WSW 1016,0 24 0,2
17.06.2018 08:00:00 13,4 10,7 - - 21 11 - - WSW 1015,6 29 0,0
17.06.2018 07:00:00 12,7 10,1 - - 16 9 - - WSW 1015,0 30 0,0
17.06.2018 06:00:00 12,0 9,8 - - 15 8 - - WSW 1014,7 30 0,0
17.06.2018 05:00:00 11,5 9,5 - - 13 7 - - WSW 1014,4 30 0,0
17.06.2018 04:00:00 11,0 9,1 - - 16 9 - - WSW 1014,3 30 0,0
17.06.2018 03:00:00 10,3 8,6 - - 11 6 - - WSW 1014,4 30 0,0
17.06.2018 02:00:00 11,1 8,5 - - 16 9 - - WSW 1014,2 35 0,0
17.06.2018 01:00:00 11,5 8,4 - - 16 9 - - WSW 1013,9 35 0,0
17.06.2018 00:00:00 12,6 8,2 - - 18 10 - - WSW 1013,7 35 0,0
16.06.2018 23:00:00 13,4 8,4 - - 24 13 - - WSW 1013,4 35 0,0
16.06.2018 22:00:00 15,1 11,3 - - 22 12 - - WSW 1012,9 30 0,0
16.06.2018 21:00:00 15,6 11,7 - - 16 9 - - SSW 1012,3 30 0,0
16.06.2018 20:00:00 16,7 11,4 - - 24 13 - - SW 1012,3 40 0,0
16.06.2018 19:00:00 17,1 11,8 - - 26 14 - - SW 1012,2 45 0,0
16.06.2018 18:00:00 18,0 11,7 - - 24 13 - - SW 1012,4 45 0,0
16.06.2018 17:00:00 18,9 11,2 - - 26 14 - - SW 1012,4 40 0,0
16.06.2018 16:00:00 19,1 10,2 - - 28 15 - - WSW 1012,6 55 0,0
16.06.2018 15:00:00 19,2 9,2 - - 26 14 - - WSW 1012,6 45 0,0
16.06.2018 14:00:00 18,8 9,0 - - 26 14 - - WSW 1012,9 50 0,0

tt = temperature
td = dewpoint
tt -20cm = temperature -20cm
tt -100cm = temperature -100cm
ff = wind speed
fx = gusts
dd = wind direction
ppp = reduced air pressure
vv = visibility
rr = precipitation

Next stations